Location: Bijele Vode
(45.2833°N, 16.2000°E)
Time: 04:34:01
(UTC+00:00)

CENTAUR R/B - Pass Details

Date: 20 January 2021
Orbit: 742 x 1446 km, 63.5° (Epoch: 01 March)

Event Time Altitude Azimuth Distance (km) Brightness Sun altitude
Rises 05:25:34 0° 189° (S) 3,332 5.4 -10.8°
Reaches altitude 10° 05:27:59 10° 182° (S) 2,475 4.9 -10.4°
Maximum altitude 05:33:15 39° 115° (ESE) 1,382 4.1 -9.6°
Drops below altitude 10° 05:39:26 10° 49° (NE) 2,908 5.4 -8.5°
Sets 05:42:29 0° 42° (NE) 3,987 6.0 -8.0°
